TimeCST,TemperatureF,Dew PointF,Humidity,Sea Level PressureIn,VisibilityMPH,Wind Direction,Wind SpeedMPH,Gust SpeedMPH,PrecipitationIn,Events,Conditions,WindDirDegrees,DateUTC
12:54 AM,36.0,21.0,55,30.32,10.0,ESE,6.9,-,N/A,,Clear,120,2012-11-15 06:54:00
1:54 AM,34.0,21.9,61,30.32,10.0,SE,6.9,-,N/A,,Clear,130,2012-11-15 07:54:00
2:54 AM,35.1,21.9,59,30.33,10.0,SE,5.8,-,N/A,,Clear,130,2012-11-15 08:54:00
3:54 AM,34.0,21.9,61,30.33,10.0,SE,4.6,-,N/A,,Clear,130,2012-11-15 09:54:00
4:54 AM,33.1,21.9,64,30.33,10.0,SE,5.8,-,N/A,,Clear,140,2012-11-15 10:54:00
5:54 AM,32.0,21.2,64,30.32,10.0,SE,5.8,-,N/A,,Clear,140,2012-11-15 11:54:00
6:54 AM,32.0,21.9,66,30.34,10.0,SE,5.8,-,N/A,,Clear,140,2012-11-15 12:54:00
7:54 AM,34.0,23.0,64,30.36,10.0,SE,4.6,-,N/A,,Clear,140,2012-11-15 13:54:00
8:54 AM,39.9,26.1,58,30.37,10.0,SSE,5.8,-,N/A,,Clear,160,2012-11-15 14:54:00
9:54 AM,46.0,28.0,50,30.37,10.0,SW,4.6,-,N/A,,Clear,220,2012-11-15 15:54:00
10:54 AM,51.1,28.0,41,30.37,10.0,South,3.5,-,N/A,,Clear,190,2012-11-15 16:54:00
11:54 AM,54.0,30.0,40,30.35,10.0,WSW,3.5,-,N/A,,Clear,240,2012-11-15 17:54:00
12:54 PM,57.0,28.0,33,30.33,10.0,SW,4.6,-,N/A,,Clear,220,2012-11-15 18:54:00
1:54 PM,57.0,28.9,34,30.32,10.0,NW,5.8,-,N/A,,Clear,310,2012-11-15 19:54:00
2:54 PM,55.9,30.9,39,30.32,10.0,Calm,Calm,-,N/A,,Clear,0,2012-11-15 20:54:00
3:54 PM,54.0,36.0,51,30.33,10.0,Calm,Calm,-,N/A,,Clear,0,2012-11-15 21:54:00
4:54 PM,52.0,30.0,43,30.33,10.0,Calm,Calm,-,N/A,,Partly Cloudy,0,2012-11-15 22:54:00
5:54 PM,51.1,28.9,43,30.34,10.0,SSE,3.5,-,N/A,,Clear,160,2012-11-15 23:54:00
6:54 PM,48.0,30.0,50,30.35,10.0,South,4.6,-,N/A,,Clear,180,2012-11-16 00:54:00
7:54 PM,48.9,28.0,44,30.36,10.0,Calm,Calm,-,N/A,,Partly Cloudy,0,2012-11-16 01:54:00
8:54 PM,48.9,28.9,46,30.37,10.0,Calm,Calm,-,N/A,,Partly Cloudy,0,2012-11-16 02:54:00
9:54 PM,46.9,28.9,50,30.38,10.0,Calm,Calm,-,N/A,,Overcast,0,2012-11-16 03:54:00
10:54 PM,46.9,28.9,50,30.38,10.0,WNW,4.6,-,N/A,,Overcast,290,2012-11-16 04:54:00
11:54 PM,46.9,30.0,52,30.38,10.0,West,3.5,-,N/A,,Overcast,270,2012-11-16 05:54:00